Terug naar catalogus

SL-8 DEB

ActiefLEO
NORAD 39695·DEBRIS·🇷🇺 Russia

Gelanceerd Feb 12, 1991 vanaf Plesetsk Cosmodrome

Loading…

Volgende Passages (komende 24 uur)

TLE

VersSource: Space-Track

Epoch: Sep 12, 2026, 23:30 UTC

1 39695U 91009DJ  26255.97919699  .00000016  00000-0  29487-3 0  9990
2 39695  74.0630 160.2564 0139046 205.7304 153.6768 12.18921984302198

Volg SL-8 DEB in realtime met AllMySat

Download on the App Store